Location: Badger Butte
(44.9311°N, 118.3053°W)
Time: 23:40:25
(UTC+00:00)

Daily predictions for brighter satellites

Satellite Brightness Start Highest point End
(mag) Time Altitude Azimuth Time Altitude Azimuth Time Altitude Azimuth
Abrixas 2.4 12:03:08 10° WNW 12:05:46 68° NNE 12:08:23 10° ESE
ERBS 2.9 12:05:18 10° WNW 12:08:28 34° SW 12:11:36 10° SSE
ADEOS II 2.2 12:04:12 10° N 12:09:23 60° WNW 12:14:33 10° SSW
Cosmos 2173 Rocket 4.1 12:03:16 10° SSW 12:09:30 67° W 12:15:52 10° N
Cosmos 1300 3.4 12:06:07 10° SW 12:09:40 36° WNW 12:13:14 10° N
Cosmos 1833 Rocket 4.3 12:05:57 10° SSE 12:10:59 35° ESE 12:16:03 10° NE
PSLV R/B 4.2 12:10:34 10° N 12:14:35 51° WNW 12:18:36 10° SSW
CZ-2C R/B 3.8 12:13:01 10° SSE 12:17:26 80° ENE 12:21:55 10° NNW
Cosmos 2278 3.9 12:12:02 10° NNW 12:17:42 81° ENE 12:23:22 10° SSE
Cosmos 1151 Rocket 3.0 12:14:47 10° SSW 12:19:05 77° W 12:23:24 10° N
Cosmos 1980 Rocket 4.4 12:14:56 10° N 12:19:54 31° NE 12:24:50 10° ESE
Cosmos 2228 Rocket 3.4 12:16:36 10° SSW 12:20:58 49° WNW 12:25:19 10° N
BREEZE-M DEB (TANK) 3.7 12:20:49 10° SW 12:21:06 10° SW 12:21:23 10° SSW
Sich 1 4.4 12:19:20 10° NW 12:22:32 20° W 12:25:42 10° SW
CZ-4B DEB 4.3 12:20:32 10° N 12:26:05 75° WNW 12:31:34 10° SSW
